Location: Diguira
(13.1838°N, 4.9109°W)
Time: 15:33:01
(UTC+00:00)

DELTA-4 R/B - Pass Details

Date: 18 September 2020
Orbit: 467 x 34491 km, 13.4° (Epoch: 20 October)

Event Time Altitude Azimuth Distance (km) Brightness Sun altitude
Rises 18:34:09 0° 272° (W) 2,870 9.2 -4.7°
Reaches altitude 10° 18:35:32 10° 270° (W) 2,248 7.4 -5.0°
Maximum altitude 18:40:01 73° 185° (S) 1,435 4.4 -6.1°
Enters shadow 19:04:37 12° 103° (ESE) 10,721 8.2 -12.1°
Exits shadow 20:08:16 - 104° (ESE) 25,439 10.2 -27.5°
Drops below altitude 10° 03:44:32 10° 107° (ESE) 16,578 10.4 -35.7°
Sets 03:57:41 0° 102° (ESE) 14,510 10.4 -32.6°
